User: anonymous   Login
Location: Unspecified
(0.0000°N, 0.0000°E)
Time: 08:39:52
(UTC+00:00)
Language:

Meteor 2-18 - Orbit

View from above orbital plane
View from above orbital plane
View from above satellite
View from above satellite

Ground track
Ground track

The orbit data is extracted from the following two-line orbital elements,

1 19851U 89018A   18016.77371064  .00000030  00000-0  13502-4 0  9999
2 19851  82.5220 105.3392 0013765 133.0429 339.9357 13.85700249460358
Epoch (UTC): 16 January 2018 18:34:08
Eccentricity: 0.0013765
inclination: 82.5220°
perigee height: 933 km
apogee height: 954 km
right ascension of ascending node: 105.3392°
argument of perigee: 133.0429°
revolutions per day: 13.85700249
mean anomaly at epoch: 339.9357°
orbit number at epoch: 46035

The dashed part of the orbit path shows where the satellite is in the earth's shadow,  

DLR